LEGION 4

Last updated on Mon Sep 07 2026 00:02:46 GMT+0000 (Coordinated Universal Time)

1 60453U 24146B 26249.58473529 .00002569 00000+0 14499-3 0 9992 2 60453 45.0022 46.0049 0008830 47.5856 312.5768 15.15997379113227
UTC large
Height (km)
Speed (km/s)
/
Latitude / Longitude
Inclination (degrees)
Orbital Period (minutes)
Azimuth
Elevation
Range (km)
Doppler Factor

Next 0 passes for location: London (51.5072 / 0.1276)

No passes found over London.
LEGION 4